Home > Weather > Bury > Past weeks

Flag for United Kingdom Past Weather in Bury, England, United Kingdom — Yesterday and Last 2 Weeks

Now
59 °F

Passing clouds.


Feels Like: 58 °F
Forecast: 47 / 68 °F
Wind: 6 mph from South

Location: Manchester Airport

Current Time: Aug 26, 2016 at 2:49:35 AM

Latest Report: Aug 26, 2016 at 2:20 AM


Visibility: N/A

Pressure: 29.95 "Hg

Humidity: 94%

Dew Point: 57 °F

Location of BuryLocation

Past Weather in Bury — Graph

°F

Bury Temperature Yesterday

Maximum temperature yesterday: 64 °F (at 10:20 AM)
Minimum temperature yesterday: 61 °F (at 12:20 AM)
Average temperature yesterday: 63 °F

High & Low Weather Summary for the Past Weeks

 TemperatureHumidityPressure
High79 °F (Aug 23, 3:20 PM)100% (Aug 21, 9:50 PM)30.33 "Hg (Aug 21, 9:50 PM)
Low46 °F (Aug 15, 5:50 AM)47% (Aug 18, 5:50 PM)29.45 "Hg (Aug 20, 7:20 AM)
Average63 °F80%30.02 "Hg
* Reported Aug 11 1:20 AM — Aug 26 1:50 AM, Bury, Weather by CustomWeather, © 2016

Note: Actual official high and low records may vary slightly from our data, if they occured in-between our weather recording intervals... More about our weather records

Advertising

Bury Weather History for the Previous 24 Hours

Scroll right to see more
 ConditionsComfort  
Time TempWeatherWind HumidityBarometerVisibility
1:50 AM
Fri, Aug 26
59 °FPassing clouds.6 mph94%29.95 "HgN/A
1:20 AM59 °FPassing clouds.5 mph94%29.95 "HgN/A
12:50 AM59 °FPassing clouds.8 mph94%29.95 "HgN/A
12:20 AM59 °FLight rain. Clear.7 mph100%29.95 "HgN/A
11:50 PM
Thu, Aug 25
61 °FRain showers. Passing clouds.6 mph94%29.95 "Hg6 mi
11:20 PM63 °FRain. Passing clouds.7 mph94%29.95 "Hg3 mi
10:50 PM63 °FRain. Fog.3 mph100%29.95 "Hg2 mi
10:20 PM63 °FRain. Fog.5 mph100%29.95 "Hg2 mi
9:50 PM63 °FRain. Fog.3 mph100%29.95 "Hg2 mi
9:20 PM63 °FFog.7 mph100%29.95 "Hg2 mi
8:50 PM63 °FRain. Fog.5 mph100%29.95 "Hg2 mi
8:20 PM64 °FHeavy rain. Fog.3 mph94%29.95 "Hg1 mi
7:50 PM63 °FLight rain. Fog.No wind100%29.95 "Hg2 mi
7:20 PM64 °FHeavy rain. Fog.6 mph94%29.98 "Hg2 mi
6:50 PM64 °FLight rain. Fog.3 mph94%29.95 "Hg3 mi
6:20 PM64 °FLight rain. Fog.2 mph94%29.95 "Hg3 mi
5:50 PM64 °FRain. Fog.No wind88%29.98 "Hg3 mi
5:20 PM64 °FLight rain. Fog.3 mph94%29.98 "Hg3 mi
4:50 PM64 °FMore clouds than sun.3 mph94%29.98 "Hg4 mi
4:20 PM64 °FMore clouds than sun.2 mph94%29.98 "Hg4 mi
3:50 PM64 °FMore clouds than sun.3 mph94%29.98 "Hg4 mi
3:20 PM64 °FLight rain. More clouds than sun.3 mph94%29.98 "Hg4 mi
2:50 PM64 °FBroken clouds.2 mph94%30.01 "Hg5 mi
2:20 PM63 °FMore clouds than sun.3 mph94%30.01 "Hg5 mi
1:50 PM64 °FRain. More clouds than sun.5 mph88%30.01 "Hg4 mi
1:20 PM63 °FRain. Mostly cloudy.3 mph94%30.01 "Hg3 mi
12:50 PM63 °FLight rain. Low clouds.3 mph94%30.01 "Hg3 mi
12:20 PM64 °FLight rain. Partly sunny.2 mph88%30.01 "Hg4 mi
11:50 AM64 °FPartly sunny.3 mph88%30.01 "HgN/A
11:20 AM64 °FPartly sunny.3 mph88%30.04 "HgN/A
10:50 AM64 °FPartly sunny.No wind83%30.04 "HgN/A
10:20 AM64 °FPartly sunny.2 mph88%30.04 "HgN/A
9:50 AM63 °FPartly sunny.2 mph88%30.04 "HgN/A
9:20 AM63 °FPartly sunny.3 mph94%30.04 "HgN/A
8:50 AM63 °FPartly sunny.3 mph88%30.04 "HgN/A
8:20 AM61 °FPartly sunny.3 mph94%30.04 "HgN/A
7:50 AM61 °FPartly sunny.2 mph94%30.04 "HgN/A
7:20 AM61 °FPartly sunny.3 mph94%30.04 "HgN/A
6:50 AM61 °FPassing clouds.6 mph94%30.04 "HgN/A
6:20 AM61 °FPassing clouds.7 mph94%30.04 "HgN/A
5:50 AM61 °FPassing clouds.7 mph88%30.04 "HgN/A
5:20 AM61 °FLight rain. Passing clouds.7 mph88%30.04 "HgN/A
4:50 AM61 °FLight rain. Mostly cloudy.7 mph88%30.04 "HgN/A
4:20 AM61 °FLight rain. Overcast.2 mph94%30.07 "HgN/A
3:50 AM61 °FLight rain. Mostly cloudy.3 mph88%30.07 "HgN/A
3:20 AM61 °FRain. Mostly cloudy.3 mph94%30.07 "Hg6 mi
2:50 AM61 °FLight rain. Passing clouds.3 mph94%30.07 "HgN/A
2:20 AM61 °FLight rain. Overcast.2 mph88%30.09 "HgN/A
Weather by CustomWeather, © 2016

See weather overviewHow to use our weather pages